Погода в Широкино

Украина / Донецкая область     47°05′58″N   37°49′17″E
темп.,
°C
ветер,
м/с
пор.,
м/с
влажн.,
%
обл.,
%
осадки,
мм/ч
давл.,
гПа
погр.,
м
25 июля, вс
вс2500:00+24с56560 0.0 1015174
03:00+23ссв68580 0.0 1015219
06:00+23св67610 0.0 1015248
09:00+25всв78580 0.0 1016471
12:00+26в57520 0.0 1017598
15:00+27в46510 0.0 1017334
18:00+28ссв22510 0.0 101673
21:00+27ссв55560 0.0 101782
26 июля, пн
пн2600:00+25св812590 0.0 1017346
03:00+24св8125813 0.0 1018343
06:00+23св7105915 0.0 1018293
09:00+25св795678 0.0 1018393
12:00+28св585475 0.0 1018337
15:00+27в676137 0.0 1017253
18:00+28в47597 0.0 1017116
21:00+27св566092 0.0 101797
27 июля, вт
вт2700:00+26св696323 0.1 1017236
03:00+25св696134 0.1 1017355
06:00+24св796484 0.2 1018420
09:00+25св686271 0.3 1018454
12:00+27в78572 0.0 1018538
15:00+28св67532 0.0 1018271
18:00+29св565218 0.0 101791
21:00+28вюв686174 0.0 1018173
28 июля, ср
ср2800:00+25ю78610 0.0 1019431
03:00+24ю33605 0.0 1019385
06:00+24ююв336040 0.0 1019326
09:00+24ююз225811 0.0 1019354
12:00+24юз21573 0.0 1019266
15:00+26юз22535 0.0 1018192
18:00+26зюз33555 0.0 1017138
21:00+26з226210 0.0 101645
29 июля, чт
чт2900:00+26сз446189 0.0 101588
03:00+25ссз23573 0.0 1015104
06:00+26юз33651 0.0 1015289
09:00+26зюз23614 0.0 1014277
12:00+27юз34590 0.0 1014337
15:00+27юз56640 0.0 1013342
18:00+27юз67680 0.0 1012199
21:00+27зюз56674 0.0 1011152